Mandan, ND

6:06 PM CST on February 20, 2018 (GMT -0600)
Mandan

Weather History for KY19 - May, 2013

Change the Weather History Date:

Thursday, May 16, 2013

  Actual Average (KBIS) Record (KBIS)
Temperature  
Mean Temperature 58 °F -  
Max Temperature 64 °F 71 °F 94 °F (1934)
Min Temperature 51 °F 43 °F 22 °F (1925)
Degree Days  
Heating Degree Days 8    
Growing Degree Days 8 (Base 50)    
Moisture  
Dew Point 48 °F    
Average Humidity 82    
Maximum Humidity 100    
Minimum Humidity 30    
Precipitation  
Precipitation 0.24 in - - ()
Sea Level Pressure  
Sea Level Pressure 29.91 in    
Wind  
Wind Speed 8 mph (ENE)    
Max Wind Speed 22 mph    
Max Gust Speed 29 mph    
Visibility 9 miles    
Events Rain    
Averages and records for this station are not official NWS values.
T = Trace of Precipitation, MM = Missing Value Source: NWS Daily Summary

Daily Weather History Graph

Daily Weather History Graph

Search for Another Location

Airport or City:

Trip Planner

Search our weather history database for the weather conditions in past years. The results will help you decide how hot, cold, wet, or windy it might be!

Date:

Astronomy

May. 16, 2013 Rise Set
Actual Time 6:07 AM CDT 9:13 PM CDT
Civil Twilight 5:31 AM CDT 9:49 PM CDT
Nautical Twilight 4:44 AM CDT 10:36 PM CDT
Astronomical Twilight 3:48 AM CDT 11:33 PM CDT
Moon 11:49 AM CDT (5/16) 1:28 AM CDT (5/16)
Length of Visible Light 16h 17m
Length of Day
15h 05m
Waxing Crescent, 36% of the Moon is Illuminated
May 16
Waxing Crescent
May 17
First Quarter
May 24
Full
May 31
Last Quarter
Jun 8
New

Hourly Weather History & Observations

Time (CDT) Temp. Dew Point Humidity Pressure Visibility Wind Dir Wind Speed Gust Speed Precip Events Conditions
12:15 AM 64.4 °F 32.0 °F 30% 29.91 in 10.0 mi NE 5.8 mph - N/A   Scattered Clouds
12:35 AM 62.6 °F 33.8 °F 34% 29.90 in 10.0 mi NE 4.6 mph - N/A   Scattered Clouds
12:55 AM 57.2 °F 35.6 °F 44% 29.91 in 10.0 mi East 3.5 mph - N/A   Scattered Clouds
1:15 AM 57.2 °F 35.6 °F 44% 29.91 in 10.0 mi Calm Calm - N/A   Partly Cloudy
1:35 AM 57.2 °F 37.4 °F 48% 29.91 in 10.0 mi SSE 3.5 mph - N/A   Mostly Cloudy
1:55 AM 55.4 °F 39.2 °F 54% 29.91 in 10.0 mi Calm Calm - N/A   Mostly Cloudy
2:15 AM 55.4 °F 41.0 °F 58% 29.91 in 10.0 mi Calm Calm - N/A   Mostly Cloudy
2:35 AM 53.6 °F 37.4 °F 54% 29.90 in 10.0 mi NNE 3.5 mph - N/A   Overcast
2:55 AM 57.2 °F 39.2 °F 51% 29.90 in 10.0 mi NNE 8.1 mph - N/A   Overcast
3:15 AM 55.4 °F 39.2 °F 54% 29.90 in 10.0 mi SE 5.8 mph - N/A   Overcast
3:35 AM 53.6 °F 42.8 °F 67% 29.90 in 10.0 mi East 6.9 mph - N/A   Overcast
3:55 AM 55.4 °F 39.2 °F 54% 29.89 in 10.0 mi East 6.9 mph - N/A   Mostly Cloudy
4:15 AM 57.2 °F 35.6 °F 44% 29.89 in 10.0 mi East 9.2 mph - N/A   Overcast
4:35 AM 57.2 °F 35.6 °F 44% 29.89 in 10.0 mi ENE 6.9 mph - N/A   Overcast
4:55 AM 55.4 °F 39.2 °F 54% 29.91 in 10.0 mi NNW 8.1 mph - N/A   Overcast
5:15 AM 53.6 °F 39.2 °F 58% 29.91 in 10.0 mi NE 5.8 mph - N/A   Overcast
5:35 AM 55.4 °F 39.2 °F 54% 29.92 in 10.0 mi Calm Calm - N/A   Overcast
5:55 AM 53.6 °F 41.0 °F 62% 29.92 in 10.0 mi NNE 3.5 mph - N/A   Overcast
6:15 AM 53.6 °F 41.0 °F 62% 29.91 in 10.0 mi SE 5.8 mph - N/A   Overcast
6:35 AM 53.6 °F 41.0 °F 62% 29.91 in 10.0 mi ESE 6.9 mph - N/A   Overcast
6:55 AM 51.8 °F 44.6 °F 76% 29.91 in 7.0 mi ENE 9.2 mph - N/A Rain Light Rain
7:15 AM 51.8 °F 44.6 °F 76% 29.91 in 10.0 mi ENE 8.1 mph - N/A   Overcast
7:35 AM 53.6 °F 44.6 °F 72% 29.91 in 10.0 mi ENE 6.9 mph - N/A   Overcast
7:55 AM 53.6 °F 44.6 °F 72% 29.91 in 10.0 mi NE 5.8 mph - N/A   Overcast
8:15 AM 53.6 °F 46.4 °F 77% 29.92 in 10.0 mi NNW 6.9 mph - N/A   Overcast
8:35 AM 53.6 °F 46.4 °F 77% 29.92 in 10.0 mi North 9.2 mph - N/A Rain Light Rain
8:55 AM 55.4 °F 46.4 °F 72% 29.92 in 9.0 mi North 8.1 mph - N/A   Mostly Cloudy
10:55 AM 57.2 °F 50.0 °F 77% 29.92 in - SE 8.1 mph - N/A Rain Light Rain
11:15 AM 55.4 °F 51.8 °F 88% 29.93 in 10.0 mi Calm Calm - N/A   Overcast
11:35 AM 55.4 °F 53.6 °F 94% 29.93 in 9.0 mi North 6.9 mph - N/A Rain Light Rain
11:55 AM 57.2 °F 55.4 °F 94% 29.93 in 10.0 mi NE 4.6 mph - N/A   Overcast
12:15 PM 57.2 °F 55.4 °F 94% 29.93 in 10.0 mi North 6.9 mph - N/A Rain Light Rain
12:35 PM 57.2 °F 57.2 °F 100% 29.92 in 8.0 mi North 8.1 mph - N/A Rain Light Rain
12:55 PM 55.4 °F 55.4 °F 100% 29.93 in 6.0 mi North 9.2 mph - 0.03 in Rain Light Rain
1:15 PM 57.2 °F 57.2 °F 100% 29.91 in 7.0 mi NE 13.8 mph - 0.01 in Rain Light Rain
1:35 PM 55.4 °F 55.4 °F 100% 29.93 in 10.0 mi NNE 11.5 mph 20.7 mph 0.01 in   Overcast
1:55 PM 55.4 °F 55.4 °F 100% 29.94 in 5.0 mi NNE 13.8 mph 21.9 mph 0.03 in Rain Light Rain
2:15 PM 53.6 °F 53.6 °F 100% 29.94 in 2.5 mi NNE 16.1 mph - 0.08 in Rain Rain
2:35 PM 53.6 °F 53.6 °F 100% 29.93 in 6.0 mi NE 15.0 mph - 0.10 in Rain Light Rain
2:55 PM 53.6 °F 53.6 °F 100% 29.93 in 5.0 mi NE 15.0 mph 23.0 mph 0.13 in Rain Light Rain
3:15 PM 53.6 °F 53.6 °F 100% 29.94 in 4.0 mi ENE 15.0 mph 23.0 mph 0.02 in Rain Rain
3:35 PM 53.6 °F 53.6 °F 100% 29.93 in 5.0 mi ENE 19.6 mph 24.2 mph 0.05 in Rain Light Rain
3:55 PM 53.6 °F 53.6 °F 100% 29.91 in 5.0 mi East 21.9 mph 28.8 mph 0.05 in Rain Light Rain
4:15 PM 51.8 °F 51.8 °F 100% 29.91 in 10.0 mi East 18.4 mph 28.8 mph N/A Rain Light Rain
4:35 PM 53.6 °F 53.6 °F 100% 29.89 in 10.0 mi East 20.7 mph 28.8 mph N/A Rain Light Rain
5:15 PM 53.6 °F 53.6 °F 100% 29.89 in 10.0 mi East 18.4 mph 28.8 mph N/A   Overcast
5:35 PM 53.6 °F 53.6 °F 100% 29.88 in 10.0 mi East 19.6 mph 28.8 mph N/A   Overcast
5:55 PM 53.6 °F 53.6 °F 100% 29.89 in 10.0 mi East 20.7 mph 26.5 mph N/A   Overcast
6:15 PM 53.6 °F 53.6 °F 100% 29.89 in 10.0 mi East 15.0 mph 21.9 mph N/A   Overcast
6:35 PM 53.6 °F 53.6 °F 100% 29.89 in 10.0 mi East 18.4 mph 23.0 mph N/A   Overcast
6:55 PM 53.6 °F 53.6 °F 100% 29.88 in 10.0 mi East 12.7 mph 20.7 mph N/A   Overcast
7:15 PM 53.6 °F 53.6 °F 100% 29.88 in 10.0 mi East 17.3 mph - N/A   Overcast
7:35 PM 53.6 °F 53.6 °F 100% 29.87 in 10.0 mi East 17.3 mph 23.0 mph N/A Rain Light Rain
7:55 PM 53.6 °F 53.6 °F 100% 29.87 in 10.0 mi East 12.7 mph - N/A   Overcast
8:15 PM 53.6 °F 53.6 °F 100% 29.88 in 10.0 mi East 11.5 mph 16.1 mph N/A   Overcast
8:35 PM 53.6 °F 53.6 °F 100% 29.88 in 10.0 mi East 13.8 mph - N/A   Overcast
8:55 PM 53.6 °F 53.6 °F 100% 29.89 in 10.0 mi East 12.7 mph - N/A   Overcast
9:15 PM 53.6 °F 53.6 °F 100% 29.88 in 10.0 mi East 13.8 mph - N/A   Overcast
9:35 PM 53.6 °F 53.6 °F 100% 29.89 in 10.0 mi East 12.7 mph 16.1 mph N/A   Overcast
9:55 PM 53.6 °F 53.6 °F 100% 29.90 in 10.0 mi East 12.7 mph 17.3 mph N/A   Overcast
10:15 PM 53.6 °F 53.6 °F 100% 29.90 in 10.0 mi East 11.5 mph - N/A   Overcast
10:35 PM 53.6 °F 53.6 °F 100% 29.90 in 10.0 mi East 13.8 mph - N/A   Overcast
10:55 PM 51.8 °F 51.8 °F 100% 29.89 in 10.0 mi East 13.8 mph - N/A   Overcast
11:15 PM 51.8 °F 51.8 °F 100% 29.90 in 10.0 mi ENE 11.5 mph - N/A   Overcast
11:35 PM 51.8 °F 51.8 °F 100% 29.90 in 10.0 mi East 10.4 mph - N/A   Overcast
11:55 PM 51.8 °F 51.8 °F 100% 29.89 in 10.0 mi ENE 9.2 mph - N/A   Overcast